{"data":{"norad_id":67517,"epoch":"2026-09-19T10:29:48.044832Z","epoch_age_seconds":164081,"freshness":"FRESH","line1":"1 67517U 26012AA  26262.43736163  .00010133  00000+0  37713-3 0  9999","line2":"2 67517  43.0037 300.1619 0001698 279.7657  80.3003 15.27591143 37396","mean_motion":15.27591143,"eccentricity":0.0001698,"inclination_deg":43.0037,"raan_deg":300.1619,"arg_perigee_deg":279.7657,"mean_anomaly_deg":80.3003,"bstar":0.00037713,"rev_number":3739,"period_min":94.266061085692,"perigee_km":481.85070635823,"apogee_km":484.18075382537,"semimajor_km":6861.1527300918,"source":"CELESTRAK","updated_at":"2026-09-20T09:00:43.563327Z"}}